Regional Weather Roundup
Issued by NWS

Home | Current Version | Previous Version | Graphics & Text | Print | Product List | Glossary On
Versions: 1 2 3 4 5 6 7 8 9 10 11 12 13 14 15 16 17 18 19 20 21 22 23 24 25 26 27 28 29 30 31 32 33 34 35 36 37 38 39 40 41 42 43 44 45 46 47 48 49 50
000
ASUS43 KDMX 180607
RWRIA

WEATHER ROUNDUP FOR IOWA
NATIONAL WEATHER SERVICE DES MOINES IA
1200 AM CST THU DEC 18 2014

NOTE: "FAIR" INDICATES FEW OR NO CLOUDS BELOW 12,000 FEET WITH NO
SIGNIFICANT WEATHER AND/OR OBSTRUCTIONS TO VISIBILITY.

* - THESE STATIONS ARE NOT NWS STATIONS...THUS NOT UNDER NWS
QUALITY CONTROL.  THEY ALSO DO NOT REPORT WEATHER SUCH
AS PRECIPITATION OR FOG.

IAZ001>003-012>014-020>022-031>034-043>046-180700-
   NORTHWEST IOWA

CITY           SKY/WX    TMP DP  RH WIND       PRES   REMARKS
CARROLL *      CLOUDY    23  19  86 SE5       30.29R WCI  17
CHEROKEE *     CLOUDY    21  19  91 CALM      30.28S
DENISON *      CLOUDY    25  19  80 E5        30.26S WCI  19
LE MARS *      CLOUDY    21  18  86 CALM      30.28F
ORANGE CITY *  CLOUDY    21  18  86 SE3       30.27R
SHELDON *      CLOUDY    14  12  92 E3        30.27R
SIOUX CITY     CLOUDY    25  19  78 SE6       30.28S WCI  18
6HR MIN TEMP:  22; 6HR MAX TEMP:  26;

SPENCER        PTCLDY    13   8  81 NE3       30.28R
6HR MIN TEMP:  12; 6HR MAX TEMP:  19;

STORM LAKE *   CLOUDY    19  18  93 SE3       30.27R
$$

IAZ055>058-069>071-079>083-090>094-180700-
   SOUTHWEST IOWA

CITY           SKY/WX    TMP DP  RH WIND       PRES   REMARKS
ATLANTIC *     CLOUDY    25  19  80 E6        30.27S WCI  18
AUDUBON *      CLOUDY    25  16  68 E3        30.27S
CLARINDA *     CLOUDY    28  21  74 CALM      30.30R
COUNCIL BLFS * CLOUDY    27  23  86 E5        30.25F WCI  21
CRESTON *      CLOUDY    25  18  74 E7        30.26F WCI  17
HARLAN  *      CLOUDY    25  21  86 CALM      30.31S
LAMONI         CLOUDY    26  18  71 E6        30.27S WCI  19
6HR MIN TEMP:  26; 6HR MAX TEMP:  28;

RED OAK *      CLOUDY    28  21  74 E7        30.27S WCI  21
SHENANDOAH *   CLOUDY    28  23  80 E7        30.28F WCI  21
$$

IAZ047>049-059>061-072>074-084-180700-
   CENTRAL IOWA

CITY           SKY/WX    TMP DP  RH WIND       PRES   REMARKS
AMES           PTCLDY    18  13  80 CALM      30.29R
6HR MIN TEMP:  17; 6HR MAX TEMP:  22;

ANKENY *       CLEAR     18  16  93 CALM      30.30S
CHARITON *     CLOUDY    23  18  80 NE5       30.28S WCI  17
DES MOINES     PTCLDY    21  15  78 SW5       30.31R WCI  15
6HR MIN TEMP:  21; 6HR MAX TEMP:  25;

GRINNELL*      PTCLDY    18  14  86 CALM      30.29R
KNOXVILLE *    PTCLDY    21  16  79 CALM      30.29R
MARSHALLTOWN   PTCLDY    15  12  88 N3        30.28S
6HR MIN TEMP:  14; 6HR MAX TEMP:  19;

PELLA *        CLEAR     19  16  88 CALM      30.31R
PERRY *          N/A     19  18  93 CALM      30.30S
$$

IAZ004>006-015-016-023>025-035-036-180700-
   NORTH CENTRAL IOWA

CITY           SKY/WX    TMP DP  RH WIND       PRES   REMARKS
ALGONA *       CLEAR     12  10  92 NE7       30.28F WCI   2
CLARION *      CLEAR     12  10  92 NE3       30.28S
ESTHERVILLE    PTCLDY     9   6  88 N5        30.27F WCI   1
6HR MIN TEMP:   9; 6HR MAX TEMP:  16;

FORT DODGE *   CLEAR     14  10  85 CALM      30.29R
MASON CITY     MOCLDY    16  12  84 N6        30.30F WCI   7
6HR MIN TEMP:  13; 6HR MAX TEMP:  18;

FOREST CITY *  CLOUDY    18  14  86 CALM      30.28F
IOWA FALLS *     N/A     15  13  90 CALM      30.28F
$$

IAZ007>011-017>019-026>030-037>042-050>054-066-180700-
   NORTHEAST IOWA

CITY           SKY/WX    TMP DP  RH WIND       PRES   REMARKS
CEDAR RAPIDS   PTCLDY    15  12  88 N6        30.28F WCI   6
6HR MIN TEMP:  13; 6HR MAX TEMP:  20;

CHARLES CITY * MOCLDY    18  14  86 NE6       30.29F WCI   9
CLINTON *      CLEAR     16  10  79 N5        30.32F WCI   9
DECORAH *      CLOUDY    18  12  79 CALM      30.30S
DUBUQUE          N/A     17  14  88 N7        30.29S WCI   8
6HR MIN TEMP:  16; 6HR MAX TEMP:  20;

MONTICELLO *   CLEAR     18  16  93 N5        30.30F WCI  11
OELWEIN *      CLEAR     16  12  86 N5        30.29F WCI   9
WATERLOO       CLEAR     14  12  92 N3        30.30F
6HR MIN TEMP:  13; 6HR MAX TEMP:  20; 6HR PCP: TRACE;

$$

IAZ064-065-067-068-078-180700-
   EAST CENTRAL IOWA

CITY           SKY/WX    TMP DP  RH WIND       PRES   REMARKS
DAVENPORT      CLEAR     16  11  80 N3        30.30S
6HR MIN TEMP:  14; 6HR MAX TEMP:  22;

IOWA CITY      PTCLDY    16  13  88 CALM      30.31F
6HR MIN TEMP:  16; 6HR MAX TEMP:  23;

MT. PLEASANT * CLOUDY    19  16  86 CALM      30.31R
MUSCATINE *    CLEAR     18  14  86 N6        30.31F WCI   9
QUAD CITIES    CLEAR     19  15  84 CALM      30.31S
6HR MIN TEMP:  18; 6HR MAX TEMP:  24;

$$

IAZ062-063-075>077-085>089-095>099-180700-
   SOUTHEAST IOWA

CITY           SKY/WX    TMP DP  RH WIND       PRES   REMARKS
BURLINGTON     CLOUDY    22  17  81 CALM      30.30R
6HR MIN TEMP:  21; 6HR MAX TEMP:  27; 6HR PCP: TRACE;

FAIRFIELD *    CLEAR     18  14  86 CALM      30.30R
FORT MADISON * CLEAR     23  19  86 CALM      30.30F
KEOKUK *       CLEAR     23  21  93 CALM      30.30S
OSKALOOSA *      N/A     19  16  90 CALM      30.30S
CENTERVILLE *  MOCLDY    25  19  80 NE3       30.29F
OTTUMWA        PTCLDY    18  13  80 CALM      30.30R
6HR MIN TEMP:  17; 6HR MAX TEMP:  23;

WASHINGTON *   CLEAR     18  18 100 NE6       30.29F WCI   9
$$

ABBREVIATIONS USED IN REMARKS
   TC - TEMPERATURES IN CELSIUS
  WCI - WIND CHILL INDEX
   HX - HEAT INDEX
  VSB - VISIBILITY
$$



USA.gov is the U.S. government's official web portal to all federal, state and local government web resources and services.